Location: Colorado Springs
(38.8340°N, 104.8210°W)
Time: 06:16:26
(UTC-07:00)

Envisat - Pass Details

Date: 13 October 2017
Orbit: 764 x 766 km, 98.2° (Epoch: 13 December)

Event Time Altitude Azimuth Distance (km) Brightness Sun altitude
Exits shadow 22:17:27 10° 297° (WNW) 2,282 6.0 -44.9°
Drops below altitude 10° 22:17:33 10° 298° (WNW) 2,300 6.0 -44.9°
Sets 22:21:12 0° 325° (NW) 3,240 6.9 -45.5°
